Weather History for Monticello, AR

Change the Weather History Date:

Thursday, February 21, 2013

  Actual Average Record
Temperature  
Mean Temperature 44 °F -  
Max Temperature 51 °F 61 °F 82 °F (1986)
Min Temperature 37 °F 36 °F 18 °F (1959)
Degree Days  
Heating Degree Days 21    
Moisture  
Dew Point 37 °F    
Average Humidity 78    
Maximum Humidity 97    
Minimum Humidity 52    
Precipitation  
Precipitation 0.18 in - - ()
Sea Level Pressure  
Sea Level Pressure 29.85 in    
Wind  
Wind Speed 10 mph (ENE)    
Max Wind Speed 18 mph    
Max Gust Speed 26 mph    
Visibility 9 miles    
Events Rain , Thunderstorm    
Averages and records for this station are not official NWS values.
T = Trace of Precipitation, MM = Missing Value Source: NWS Daily Summary

Daily Weather History Graph

Daily Weather History Graph

Search for Another Location

Airport:

Trip Planner

Search our weather history database for the weather conditions in past years. The results will help you decide how hot, cold, wet, or windy it might be!

Date:

Astronomy

Feb. 21, 2013 Rise Set
Actual Time 6:44 AM CST 5:57 PM CST
Civil Twilight 6:19 AM CST 6:22 PM CST
Nautical Twilight 5:50 AM CST 6:51 PM CST
Astronomical Twilight 5:21 AM CST 7:20 PM CST
Moon 2:19 PM CST (2/21) 3:41 AM CST (2/21)
Length of Visible Light 12h 03m
Length of Day
11h 12m
Waxing Gibbous, 84% of the Moon is Illuminated
Feb 21
Waxing Gibbous
Feb 25
Full
Mar 4
Last Quarter
Mar 11
New
Mar 19
First Quarter

Hourly Weather History & Observations

Time (CST) Temp. Windchill Dew Point Humidity Pressure Visibility Wind Dir Wind Speed Gust Speed Precip Events Conditions
12:53 AM 37.9 °F 30.5 °F 26.1 °F 62% 30.09 in 10.0 mi ENE 11.5 mph - 0.00 in   Overcast
1:53 AM 39.0 °F 32.8 °F 26.1 °F 60% 30.06 in 10.0 mi ENE 9.2 mph - 0.00 in Rain Light Rain
2:53 AM 39.0 °F 32.3 °F 26.1 °F 60% 30.05 in 10.0 mi ENE 10.4 mph - 0.00 in   Overcast
3:53 AM 39.0 °F 31.4 °F 26.1 °F 60% 30.02 in 10.0 mi ENE 12.7 mph - N/A   Overcast
4:53 AM 39.0 °F 31.4 °F 27.0 °F 62% 30.01 in 10.0 mi ENE 12.7 mph - N/A   Overcast
5:23 AM 39.2 °F 33.0 °F 26.6 °F 61% 30.02 in 10.0 mi ENE 9.2 mph - N/A   Overcast
5:53 AM 39.0 °F 32.3 °F 27.0 °F 62% 30.02 in 10.0 mi East 10.4 mph - N/A   Overcast
6:53 AM 39.9 °F 32.9 °F 27.0 °F 60% 29.98 in 10.0 mi East 11.5 mph - N/A   Overcast
7:53 AM 39.9 °F 31.4 °F 27.0 °F 60% 29.93 in 10.0 mi East 16.1 mph 23.0 mph 0.00 in Rain Light Rain
8:53 AM 42.1 °F 34.9 °F 28.0 °F 58% 29.88 in 10.0 mi East 13.8 mph - 0.00 in Rain Light Rain
9:53 AM 45.0 °F 37.4 °F 28.0 °F 52% 29.83 in 10.0 mi SE 18.4 mph 26.5 mph 0.00 in   Overcast
10:44 AM 44.6 °F 39.7 °F 30.2 °F 57% 29.83 in 10.0 mi ESE 9.2 mph 19.6 mph 0.00 in Thunderstorm Thunderstorm
10:53 AM 44.1 °F 38.1 °F 30.0 °F 58% 29.82 in 10.0 mi SE 11.5 mph 18.4 mph 0.00 in Rain Light Rain
11:00 AM 44.6 °F 40.2 °F 30.2 °F 57% 29.83 in 4.0 mi SE 8.1 mph 17.3 mph 0.06 in Rain , Thunderstorm Rain
11:53 AM 42.1 °F 37.7 °F 37.0 °F 82% 29.79 in 10.0 mi ESE 6.9 mph - 0.13 in Rain , Thunderstorm Light Rain
12:26 PM 44.6 °F 39.7 °F 39.2 °F 81% 29.77 in 10.0 mi SE 9.2 mph - 0.04 in Rain Light Rain
12:53 PM 46.0 °F 41.9 °F 41.0 °F 83% 29.75 in 10.0 mi SE 8.1 mph - 0.04 in   Overcast
1:31 PM 48.2 °F - 42.8 °F 82% 29.74 in 10.0 mi ESE 5.8 mph - N/A   Overcast
1:53 PM 48.0 °F - 44.1 °F 86% 29.73 in 10.0 mi ESE 4.6 mph - N/A   Overcast
2:53 PM 48.9 °F - 45.0 °F 86% 29.70 in 10.0 mi East 6.9 mph - 0.00 in Rain Light Rain
3:53 PM 50.0 °F - 46.9 °F 89% 29.68 in 10.0 mi ENE 5.8 mph - 0.00 in   Overcast
4:53 PM 51.1 °F - 48.0 °F 89% 29.69 in 10.0 mi ENE 5.8 mph - N/A   Overcast
5:39 PM 50.0 °F - 48.2 °F 94% 29.72 in 10.0 mi NW 5.8 mph - 0.00 in   Overcast
5:53 PM 48.9 °F - 46.9 °F 93% 29.73 in 7.0 mi NW 13.8 mph 21.9 mph 0.00 in Rain Light Rain
6:02 PM 46.4 °F 40.7 °F 44.6 °F 93% 29.75 in 8.0 mi WNW 12.7 mph - 0.01 in Rain Light Rain
6:53 PM 44.1 °F 41.5 °F 42.1 °F 93% 29.78 in 8.0 mi NE 4.6 mph - 0.01 in   Overcast
7:08 PM 44.6 °F 42.2 °F 42.8 °F 93% 29.80 in 10.0 mi NW 4.6 mph - N/A   Overcast
7:24 PM 44.6 °F 41.4 °F 42.8 °F 93% 29.82 in 7.0 mi WNW 5.8 mph - 0.00 in Rain Light Rain
7:40 PM 44.6 °F 42.2 °F 42.8 °F 93% 29.82 in 10.0 mi NW 4.6 mph - 0.00 in   Overcast
7:51 PM 44.6 °F 41.4 °F 42.8 °F 93% 29.84 in 10.0 mi WNW 5.8 mph - 0.00 in   Overcast
7:53 PM 43.0 °F 40.3 °F 42.1 °F 97% 29.84 in 10.0 mi WNW 4.6 mph - 0.00 in   Overcast
8:53 PM 42.1 °F 37.7 °F 39.9 °F 92% 29.89 in 8.0 mi NW 6.9 mph - N/A   Overcast
9:53 PM 41.0 °F 38.0 °F 39.0 °F 93% 29.89 in 9.0 mi Variable 4.6 mph - N/A   Mostly Cloudy
10:53 PM 39.9 °F - 39.0 °F 97% 29.90 in 8.0 mi Calm Calm - N/A   Overcast
11:53 PM 39.9 °F - 37.9 °F 93% 29.90 in 4.0 mi Calm Calm - N/A   Overcast